Location: Newark
(38.6500°N, 6.7333°W)
Time: 13:27:20
(UTC+00:00)

ISS - Visible Passes

Search period start: 18 March 2019 00:00
Search period end: 28 March 2019 00:00
Orbit: 406 x 411 km, 51.6° (Epoch: 18 March)

Date Brightness Start Highest point End Pass type
(mag) Time Alt. Az. Time Alt. Az. Time Alt. Az.
18 Mar -2.2 05:20:39 20° SSW 05:20:39 20° SSW 05:22:25 10° S visible
19 Mar -1.5 19:31:10 10° SSE 19:31:40 11° SE 19:31:40 11° SE visible
20 Mar -3.2 20:14:16 10° SW 20:16:47 46° SSW 20:16:47 46° SSW visible
21 Mar -2.9 19:23:38 10° SSW 19:26:34 30° SE 19:28:53 14° ENE visible
21 Mar -1.1 21:00:13 10° W 21:01:40 20° WNW 21:01:40 20° WNW visible
22 Mar -2.9 20:08:47 10° WSW 20:11:59 48° NW 20:13:31 26° NNE visible
23 Mar -3.8 19:17:36 10° SW 19:20:53 88° SSE 19:24:12 10° NE visible
23 Mar -1.1 20:55:40 10° WNW 20:57:51 16° NNW 20:57:55 16° NNW visible
24 Mar -1.6 20:03:51 10° W 20:06:34 23° NNW 20:09:17 10° NNE visible
25 Mar -2.3 19:12:15 10° WSW 19:15:20 36° NNW 19:18:25 10° NE visible
25 Mar -0.8 20:51:37 10° NNW 20:52:39 11° NNW 20:53:23 11° N visible
26 Mar -1.0 19:59:23 10° NW 20:01:15 14° NNW 20:03:06 10° NNE visible
